When you browse on this site, cookies collect data to enhance your experience and personalize the content and advertising you see.
Visit our Privacy Policy to learn more. By continuing to use the site, you agree to this use of cookies and data.
  • In Romania
  • List of Countries
  • For 7 days
  • Water Temperature
  • Satellite Maps
  • Weather Map
  • Weather Widgets
  • user-avatar
    Login

    Hourly Weather Zmeyka

    Today, 16 January, Wednesday

    Time Temperature Precipitation Wind Pressure Humidity
    00:00 +1°C° 0 mm 2 mps 719 mmHg 80%
    01:00 +1°C° 0 mm 2 mps 719 mmHg 76%
    02:00 +2°C° 0 mm 2 mps 719 mmHg 73%
    03:00 +2°C° 0 mm 1 mps 718 mmHg 77%
    04:00 +3°C° 0 mm 1 mps 718 mmHg 73%
    05:00 +3°C° 0 mm 1 mps 719 mmHg 69%
    06:00 +4°C° 0 mm 1 mps 719 mmHg 65%
    07:00 +5°C° 0 mm 1 mps 719 mmHg 62%
    08:00 +5°C° 0 mm 1 mps 718 mmHg 59%
    09:00 +7°C° 0 mm 1 mps 718 mmHg 55%
    10:00 +6°C° 0 mm 2 mps 719 mmHg 54%
    11:00 +7°C° 0 mm 3 mps 719 mmHg 54%
    12:00 +8°C° 0 mm 3 mps 720 mmHg 53%
    13:00 +6°C° 0 mm 5 mps 721 mmHg 62%
    14:00 +3°C° 0 mm 6 mps 721 mmHg 72%
    15:00 0°C° 0 mm 8 mps 722 mmHg 81%
    16:00 -1°C° 0 mm 7 mps 723 mmHg 81%
    17:00 -2°C° 0 mm 6 mps 723 mmHg 81%
    18:00 -2°C° 0 mm 5 mps 724 mmHg 81%
    19:00 -2°C° 0.1 mm 5 mps 725 mmHg 80%
    20:00 -2°C° 0.1 mm 5 mps 725 mmHg 79%
    21:00 -4°C° 0.1 mm 5 mps 725 mmHg 78%
    22:00 -3°C° 0 mm 4 mps 726 mmHg 77%
    23:00 -2°C° 0 mm 3 mps 726 mmHg 76%

    Tomorrow, 17 January, Thursday

    Time Temperature Precipitation Wind Pressure Humidity
    00:00 -2°C° 0 mm 3 mps 727 mmHg 75%
    01:00 -2°C° 0 mm 2 mps 727 mmHg 75%
    02:00 -2°C° 0 mm 2 mps 727 mmHg 74%
    03:00 -2°C° 0 mm 2 mps 728 mmHg 74%
    04:00 0°C° 0 mm 1 mps 728 mmHg 75%
    05:00 0°C° 0 mm 1 mps 728 mmHg 75%
    06:00 0°C° 0 mm 1 mps 729 mmHg 76%
    07:00 0°C° 0 mm 1 mps 730 mmHg 75%
    08:00 -1°C° 0 mm 0 mps 730 mmHg 75%
    09:00 -1°C° 0 mm 0 mps 731 mmHg 74%
    10:00 -1°C° 0 mm 0 mps 731 mmHg 72%
    11:00 +1°C° 0 mm 1 mps 731 mmHg 70%
    12:00 +1°C° 0 mm 1 mps 731 mmHg 67%
    13:00 +2°C° 0 mm 1 mps 732 mmHg 67%
    14:00 +2°C° 0 mm 1 mps 732 mmHg 66%
    15:00 +2°C° 0 mm 1 mps 732 mmHg 66%
    16:00 +1°C° 0 mm 1 mps 732 mmHg 71%
    17:00 0°C° 0 mm 1 mps 733 mmHg 76%
    18:00 0°C° 0 mm 1 mps 734 mmHg 81%
    19:00 0°C° 0 mm 1 mps 734 mmHg 81%
    20:00 0°C° 0 mm 1 mps 734 mmHg 82%
    21:00 0°C° 0 mm 1 mps 735 mmHg 82%
    22:00 0°C° 0 mm 1 mps 735 mmHg 80%
    23:00 0°C° 0 mm 1 mps 735 mmHg 77%

    Day after tomorrow, 18 January, Friday

    Time Temperature Precipitation Wind Pressure Humidity
    00:00 0°C° 0 mm 1 mps 735 mmHg 75%
    01:00 0°C° 0 mm 1 mps 736 mmHg 72%
    02:00 0°C° 0 mm 1 mps 736 mmHg 69%
    03:00 0°C° 0 mm 1 mps 736 mmHg 67%
    04:00 0°C° 0 mm 1 mps 736 mmHg 64%
    05:00 0°C° 0 mm 1 mps 736 mmHg 61%
    06:00 0°C° 0 mm 1 mps 736 mmHg 58%
    07:00 +1°C° 0 mm 1 mps 736 mmHg 55%
    08:00 +1°C° 0 mm 1 mps 736 mmHg 51%
    09:00 +2°C° 0 mm 1 mps 737 mmHg 48%
    10:00 +3°C° 0 mm 1 mps 736 mmHg 45%
    11:00 +3°C° 0 mm 0 mps 736 mmHg 41%
    12:00 +4°C° 0 mm 0 mps 735 mmHg 38%
    13:00 +5°C° 0 mm 1 mps 735 mmHg 41%
    14:00 +5°C° 0 mm 1 mps 735 mmHg 43%
    15:00 +5°C° 0 mm 1 mps 734 mmHg 46%
    16:00 +4°C° 0 mm 1 mps 735 mmHg 51%
    17:00 +2°C° 0 mm 2 mps 735 mmHg 57%
    18:00 -1°C° 0 mm 2 mps 735 mmHg 62%
    19:00 +1°C° 0 mm 1 mps 735 mmHg 61%
    20:00 +1°C° 0 mm 1 mps 735 mmHg 59%
    21:00 +1°C° 0 mm 1 mps 735 mmHg 58%
    22:00 +1°C° 0 mm 1 mps 735 mmHg 55%
    23:00 +1°C° 0 mm 1 mps 735 mmHg 52%

    19 January, Saturday

    Time Temperature Precipitation Wind Pressure Humidity
    00:00 +2°C° 0 mm 1 mps 735 mmHg 49%
    01:00 +2°C° 0 mm 1 mps 735 mmHg 47%
    02:00 +2°C° 0 mm 1 mps 735 mmHg 44%
    03:00 +2°C° 0 mm 1 mps 735 mmHg 41%
    04:00 +2°C° 0 mm 1 mps 735 mmHg 39%
    05:00 +2°C° 0 mm 1 mps 735 mmHg 37%
    06:00 +2°C° 0 mm 1 mps 735 mmHg 35%
    07:00 +3°C° 0 mm 1 mps 735 mmHg 34%
    08:00 +3°C° 0 mm 1 mps 735 mmHg 33%
    09:00 +4°C° 0 mm 1 mps 736 mmHg 31%
    10:00 +5°C° 0 mm 1 mps 735 mmHg 30%
    11:00 +6°C° 0 mm 1 mps 735 mmHg 29%
    12:00 +8°C° 0 mm 1 mps 735 mmHg 27%
    13:00 +8°C° 0 mm 1 mps 735 mmHg 33%
    14:00 +8°C° 0 mm 1 mps 735 mmHg 38%
    15:00 +7°C° 0 mm 1 mps 735 mmHg 43%
    16:00 +5°C° 0 mm 0 mps 735 mmHg 48%
    17:00 +4°C° 0 mm 0 mps 735 mmHg 53%
    18:00 +2°C° 0 mm 0 mps 735 mmHg 58%
    19:00 +2°C° 0 mm 0 mps 736 mmHg 59%
    20:00 +3°C° 0 mm 1 mps 736 mmHg 60%
    21:00 +3°C° 0 mm 1 mps 736 mmHg 61%
    22:00 +3°C° 0 mm 1 mps 736 mmHg 60%
    23:00 +3°C° 0 mm 1 mps 736 mmHg 59%

    20 January, Sunday

    Time Temperature Precipitation Wind Pressure Humidity
    00:00 +2°C° 0 mm 1 mps 736 mmHg 57%
    01:00 +2°C° 0 mm 1 mps 736 mmHg 58%
    02:00 +1°C° 0 mm 0 mps 736 mmHg 58%
    03:00 +1°C° 0 mm 0 mps 736 mmHg 58%
    04:00 +1°C° 0 mm 0 mps 736 mmHg 60%
    05:00 +2°C° 0 mm 1 mps 736 mmHg 62%
    06:00 +2°C° 0 mm 1 mps 736 mmHg 64%
    07:00 +2°C° 0 mm 1 mps 737 mmHg 63%
    08:00 +2°C° 0 mm 1 mps 737 mmHg 63%
    09:00 +2°C° 0 mm 2 mps 737 mmHg 62%
    10:00 +3°C° 0 mm 2 mps 737 mmHg 57%
    11:00 +4°C° 0 mm 2 mps 736 mmHg 52%
    12:00 +5°C° 0 mm 2 mps 736 mmHg 47%
    13:00 +5°C° 0 mm 2 mps 736 mmHg 50%
    14:00 +5°C° 0 mm 2 mps 735 mmHg 53%
    15:00 +5°C° 0 mm 2 mps 735 mmHg 55%
    16:00 +4°C° 0 mm 2 mps 735 mmHg 63%
    17:00 +3°C° 0 mm 2 mps 735 mmHg 70%
    18:00 +2°C° 0 mm 2 mps 736 mmHg 77%
    19:00 +1°C° 0 mm 2 mps 736 mmHg 79%
    20:00 +1°C° 0 mm 2 mps 736 mmHg 81%
    21:00 +1°C° 0 mm 2 mps 736 mmHg 83%
    22:00 +1°C° 0 mm 2 mps 736 mmHg 82%
    23:00 -1°C° 0 mm 2 mps 735 mmHg 81%

    21 January, Monday

    Time Temperature Precipitation Wind Pressure Humidity
    00:00 +1°C° 0 mm 1 mps 735 mmHg 80%
    01:00 +1°C° 0 mm 1 mps 735 mmHg 80%
    02:00 +1°C° 0 mm 1 mps 735 mmHg 79%
    03:00 +1°C° 0 mm 1 mps 735 mmHg 79%
    04:00 +1°C° 0 mm 1 mps 735 mmHg 79%
    05:00 +1°C° 0 mm 1 mps 734 mmHg 78%
    06:00 +1°C° 0 mm 1 mps 734 mmHg 78%
    07:00 +2°C° 0 mm 1 mps 734 mmHg 75%
    08:00 +2°C° 0 mm 1 mps 734 mmHg 72%
    09:00 +2°C° 0 mm 1 mps 734 mmHg 69%
    10:00 +4°C° 0 mm 1 mps 733 mmHg 63%
    11:00 +5°C° 0 mm 1 mps 733 mmHg 57%
    12:00 +6°C° 0 mm 1 mps 732 mmHg 51%
    13:00 +6°C° 0 mm 1 mps 732 mmHg 53%
    14:00 +6°C° 0 mm 1 mps 731 mmHg 54%
    15:00 +7°C° 0 mm 1 mps 731 mmHg 55%
    16:00 +5°C° 0 mm 1 mps 731 mmHg 61%
    17:00 +4°C° 0 mm 1 mps 731 mmHg 66%
    18:00 +3°C° 0 mm 1 mps 731 mmHg 71%
    19:00 +3°C° 0 mm 1 mps 731 mmHg 69%
    20:00 +3°C° 0 mm 1 mps 731 mmHg 67%
    21:00 +3°C° 0 mm 1 mps 731 mmHg 64%
    22:00 +3°C° 0 mm 1 mps 731 mmHg 61%
    23:00 +4°C° 0 mm 1 mps 731 mmHg 58%
    Show more